User: anonymous   Login
Location: Rumah Sambob
(2.9167°N, 113.9167°E)
Time: 17:17:20
(UTC+00:00)
Language:

Ariane H10+ - Orbit

View from above orbital plane
View from above orbital plane
View from above satellite
View from above satellite

Ground track
Ground track

The orbit data is extracted from the following two-line orbital elements,

1 21941U 92021C   20221.29658764  .01026437 -24442-4  93148-3 0  9997
2 21941   3.9730 192.7370 0800824  72.9911 295.6321 14.46181924460043
Epoch (UTC): 08 August 2020 07:07:05
Eccentricity: 0.0800824
inclination: 3.9730°
perigee height: 168 km
apogee height: 1308 km
right ascension of ascending node: 192.7370°
argument of perigee: 72.9911°
revolutions per day: 14.46181924
mean anomaly at epoch: 295.6321°
orbit number at epoch: 46004

The dashed part of the orbit path shows where the satellite is in the earth's shadow,  

DLR